EUTELSAT 9B

Last updated on Sept. 29, 2020, 5:50 a.m. UTC

1 41310U 16005A   20272.85239219  .00000042  00000-0  00000-0 0  9999
2 41310   0.0773  78.6365 0004504 169.8343  75.4609  1.00271652 17182
UTC
Height (km)
Latitude
Longitude
Inclination
Orbital Period
UTC large
Height (km)
Speed (km/s)
/
Latitude / Longitude
Inclination (degrees)
Orbital Period (minutes)
Azimuth
Elevation
Range (km)
Doppler Factor
iOS Compass Heading
iOS Angle

Next 30 passes for location: Hong Kong

Rise time Rise Azimuth (degrees) Set time Set Azimuth (degrees) Duration Max altitude (degrees)

No matching passes for this satellites